Location: Stara Lesna
(49.1528°N, 20.2911°E)
Time: 02:06:02
(UTC+02:00)

Cosmos 2279 Rocket - Pass Details

Date: 21 September 2019
Orbit: 963 x 980 km, 82.9° (Epoch: 15 October)

Event Time Altitude Azimuth Distance (km) Brightness Sun altitude
Rises 02:48:51 0° 349° (N) 3,683 7.5 -32.0°
Reaches altitude 10° 02:51:22 10° 349° (NNW) 2,729 6.7 -31.7°
Enters shadow 02:56:26 60° 333° (NNW) 1,107 4.2 -31.1°
